Location: B?ogocice
(50.2413°N, 20.2361°E)
Time: 16:30:38
(UTC+00:00)

SAR-Lupe-4 - Pass Details

Date: 15 September 2024
Orbit: 476 x 483 km, 98.1° (Epoch: 03 October)

Event Time Altitude Azimuth Distance (km) Brightness Sun altitude
Rises 01:03:29 0° 34° (NNE) 2,555 8.4 -28.0°
Reaches altitude 10° 01:06:52 10° 69° (ENE) 1,665 7.1 -27.6°
Maximum altitude 01:08:07 11° 89° (E) 1,571 6.7 -27.5°
Drops below altitude 10° 01:09:22 10° 110° (ESE) 1,658 6.5 -27.3°
Enters shadow 01:09:34 10° 113° (ESE) 1,689 6.5 -27.3°
